Voltar ao catálogo

IRIDIUM 33 DEB

AtivoPO
NORAD 46435·DEBRIS·🇺🇸 United States

Lançado Sep 14, 1997 de Baikonur Cosmodrome

Loading…

Próximas Passagens (próximas 24 horas)

TLE

EnvelhecendoSource: Space-Track

Época: Sep 11, 2026, 06:25 UTC

1 46435U 97051ABN 26254.26801103  .00009581  00000-0  23602-2 0  9992
2 46435  86.2719  75.5009 0202237 100.0801  23.1832 14.40414166118324

Acompanhe IRIDIUM 33 DEB em tempo real com AllMySat

Download on the App Store